Location: Newark
(37.9717°N, 99.9089°W)
Time: 08:29:10
(UTC+00:00)

X-37B - Pass Details

Date: 01 October 2021
Orbit: 385 x 389 km, 45.0° (Epoch: 17 October)

Event Time Altitude Azimuth Distance (km) Brightness Sun altitude
Exits shadow 10:25:15 19° 41° (NE) 997 3.2 -26.2°
Drops below altitude 10° 10:26:43 10° 64° (ENE) 1,412 4.4 -25.9°
Sets 10:29:02 0° 79° (E) 2,267 5.8 -25.5°
